Carbondale, IL

10:29 PM CST on November 11, 2019 (GMT -0600)
Southern Illinois

Weather History for KMDH - August, 2019

Change the Weather History Date:

Saturday, August 24, 2019

  Actual Average Record
Temperature  
Mean Temperature 70 °F -  
Max Temperature 79 °F 86 °F 103 °F (1938)
Min Temperature 63 °F 62 °F 46 °F (1920)
Cooling Degree Days 6    
Growing Degree Days 20 (Base 50)    
Moisture  
Dew Point 61 °F    
Average Humidity 75    
Maximum Humidity 93    
Minimum Humidity 52    
Precipitation  
Precipitation 0.00 in - - ()
Sea Level Pressure  
Sea Level Pressure 30.10 in    
Wind  
Wind Speed 6 mph (ENE)    
Max Wind Speed 14 mph    
Max Gust Speed 25 mph    
Visibility 10 miles    
Events      
Averages and records for this station are not official NWS values.
T = Trace of Precipitation, MM = Missing Value Source: NWS Daily Summary

Daily Weather History Graph

Daily Weather History Graph

Search for Another Location

Airport or City:

Astronomy

Aug. 24, 2019 Rise Set
Actual Time 6:20 AM CDT 7:38 PM CDT
Civil Twilight 5:52 AM CDT 8:05 PM CDT
Nautical Twilight 5:20 AM CDT 8:37 PM CDT
Astronomical Twilight 4:45 AM CDT 9:12 PM CDT
Moon 12:15 AM CDT (8/24) 2:50 PM CDT (8/24)
Length of Visible Light 14h 12m
Length of Day
13h 17m
Last Quarter, 39% of the Moon is Illuminated
Aug 24
Last Quarter
Aug 30
New
Sep 5
First Quarter
Sep 13
Full
Sep 21
Last Quarter

Hourly Weather History & Observations

Time (CDT) Temp. Dew Point Humidity Pressure Visibility Wind Dir Wind Speed Gust Speed Precip Events Conditions
12:52 AM 66.0 °F 64.0 °F 93% 30.11 in 9.0 mi ENE 3.5 mph - N/A   Clear
1:52 AM 66.0 °F 64.0 °F 93% 30.10 in 9.0 mi NE 4.6 mph - N/A   Clear
2:52 AM 66.0 °F 63.0 °F 90% 30.12 in 9.0 mi NE 4.6 mph - N/A   Mostly Cloudy
3:52 AM 64.9 °F 63.0 °F 93% 30.11 in 10.0 mi NE 6.9 mph - N/A   Mostly Cloudy
4:52 AM 64.9 °F 62.1 °F 90% 30.12 in 10.0 mi NE 4.6 mph - N/A   Partly Cloudy
5:52 AM 64.0 °F 61.0 °F 90% 30.13 in 10.0 mi ENE 4.6 mph - N/A   Clear
6:09 AM 63.0 °F 61.0 °F 93% 30.14 in 10.0 mi ENE 5.8 mph - N/A   Partly Cloudy
6:52 AM 64.0 °F 61.0 °F 90% 30.14 in 10.0 mi NE 4.6 mph - N/A   Clear
7:52 AM 64.9 °F 61.0 °F 87% 30.15 in 10.0 mi East 3.5 mph - N/A   Clear
8:52 AM 69.1 °F 61.0 °F 75% 30.15 in 10.0 mi East 6.9 mph - N/A   Clear
9:52 AM 72.0 °F 57.9 °F 61% 30.14 in 10.0 mi ENE 11.5 mph 18.4 mph N/A   Clear
10:52 AM 73.9 °F 57.0 °F 55% 30.14 in 10.0 mi East 13.8 mph 25.3 mph N/A   Clear
11:52 AM 75.9 °F 57.9 °F 54% 30.12 in 10.0 mi ENE 10.4 mph 21.9 mph N/A   Clear
12:52 PM 75.9 °F 57.9 °F 54% 30.11 in 10.0 mi East 10.4 mph 18.4 mph N/A   Clear
1:52 PM 77.0 °F 57.9 °F 52% 30.10 in 10.0 mi ENE 10.4 mph - N/A   Clear
2:52 PM 78.1 °F 59.0 °F 52% 30.09 in 10.0 mi ENE 8.1 mph - N/A   Clear
3:52 PM 78.1 °F 61.0 °F 56% 30.06 in 10.0 mi NE 9.2 mph - N/A   Clear
4:52 PM 75.9 °F 60.1 °F 58% 30.06 in 10.0 mi ENE 9.2 mph - N/A   Clear
5:52 PM 75.0 °F 60.1 °F 60% 30.06 in 10.0 mi East 9.2 mph - N/A   Clear
6:52 PM 72.0 °F 61.0 °F 68% 30.06 in 10.0 mi ENE 3.5 mph - N/A   Clear
7:52 PM 69.1 °F 62.1 °F 78% 30.07 in 10.0 mi NE 4.6 mph - N/A   Clear
8:52 PM 68.0 °F 62.1 °F 81% 30.08 in 10.0 mi NE 3.5 mph - N/A   Clear
9:52 PM 68.0 °F 62.1 °F 81% 30.08 in 10.0 mi NE 3.5 mph - N/A   Clear
10:52 PM 66.9 °F 62.1 °F 84% 30.06 in 10.0 mi NE 4.6 mph - N/A   Clear
11:52 PM 66.0 °F 61.0 °F 84% 30.07 in 10.0 mi Calm Calm - N/A   Clear